Location: Unspecified
(47.6579°N, 23.5637°E)
Time: 07:44:07
(UTC+03:00)

ISS - Pass Details

Date: 30 September 2016
Orbit: 408 x 418 km, 51.6° (Epoch: 25 June)

Event Time Altitude Azimuth Distance (km) Brightness Sun altitude
Rises 19:34:08 0° 284° (WNW) 2,360 2.1 -5.5°
Reaches altitude 10° 19:36:17 10° 292° (WNW) 1,507 0.5 -5.8°
Maximum altitude 19:39:31 41° 4° (N) 636 -2.8 -6.4°
Drops below altitude 10° 19:42:50 10° 77° (ENE) 1,547 -1.5 -6.9°
Enters shadow 19:43:08 - 78° (ENE) 1,665 -1.4 -7.0°
